User: anonymous   Login
Location: Newark
(51.0000°N, 11.4100°E)
Time: 09:59:11
(UTC+00:00)
Language:

Tiros 1 - Orbit

View from above orbital plane
View from above orbital plane
View from above satellite
View from above satellite

Ground track
Ground track

The orbit data is extracted from the following two-line orbital elements,

1    29U 60002B   19318.13755388 -.00000118  00000-0  13443-4 0  9991
2    29  48.3795 249.4578 0023935  25.6735 334.5360 14.74327962186743
Epoch (UTC): 14 November 2019 03:18:04
Eccentricity: 0.0023935
inclination: 48.3795°
perigee height: 630 km
apogee height: 664 km
right ascension of ascending node: 249.4578°
argument of perigee: 25.6735°
revolutions per day: 14.74327962
mean anomaly at epoch: 334.5360°
orbit number at epoch: 18674

The dashed part of the orbit path shows where the satellite is in the earth's shadow,  

DLR